Location: Camaret
(48.2753°N, 4.5961°W)
Time: 00:44:20
(UTC+00:00)

USA 306 - Pass Details

Date: 29 October 2020
Orbit: 569 x 577 km, 54.0° (Epoch: 22 November)

Event Time Altitude Azimuth Distance (km) Brightness Sun altitude
Rises 19:34:07 0° 296° (WNW) 2,785 7.6 -25.5°
Reaches altitude 10° 19:36:32 10° 286° (WNW) 1,882 6.5 -25.9°
Maximum altitude 19:40:21 32° 223° (SW) 989 4.3 -26.5°
Enters shadow 19:40:36 32° 216° (SW) 994 4.3 -26.6°
